Location: Kelshall
(52.0000°N, 0.0500°W)
Time: 12:06:53
(UTC+00:00)

Okean 1 Rocket - Pass Details

Date: 18 January 2021
Orbit: 605 x 635 km, 82.5° (Epoch: 05 March)

Event Time Altitude Azimuth Distance (km) Brightness Sun altitude
Rises 17:07:11 0° 334° (NNW) 2,920 6.5 -6.7°
Reaches altitude 10° 17:10:21 10° 310° (NW) 2,000 6.0 -7.1°
Maximum altitude 17:12:40 14° 278° (W) 1,731 6.3 -7.5°
Drops below altitude 10° 17:14:57 10° 247° (WSW) 1,981 7.4 -7.8°
Sets 17:18:05 0° 222° (SW) 2,873 7.8 -8.2°
